#timestamp,LO_Frequency,Hit,StdDev 
1585890015.2,286046995.0,Y
1585890035.0,286047000.4,P
1585890035.9,286047000.4,N
1585890055.8,286047001.1,N
1585890075.6,286046998.7,N
1585890095.4,286046999.5,N
1585890115.3,286046996.9,N
1585890135.1,286046999.1,N
1585890155.9,286046996.8,N
1585890175.7,286046999.1,N
1585890195.5,286046997.5,N
1585890215.4,286046997.6,N
1585890235.2,286046996.8,N
1585890255.0,286046997.4,N
1585890255.9,286046997.4,N
1585890275.8,286046997.8,N
1585890295.6,286046995.8,N
1585890315.5,286046995.7,N
1585890335.3,286046998.0,N
1585890355.1,286046993.8,Y
1585890375.9,286046998.0,P
1585890395.7,286046997.3,P
1585890415.6,286046996.8,P
1585890435.4,286046998.0,Y
1585890455.2,286047001.2,P
1585890475.1,286046999.2,N
1585890476.0,286046999.2,N
1585890495.8,286046996.8,N
1585890515.7,286046998.9,N
1585890535.5,286046999.4,N
1585890555.3,286046999.3,N
1585890575.2,286046996.6,N
1585890595.0,286046999.5,N
1585890595.9,286046999.5,N
1585890615.7,286046999.3,N
1585890635.6,286046999.3,N
1585890655.4,286046996.7,N
1585890675.3,286046997.5,N
1585890695.1,286046996.7,N
1585890715.8,286046996.5,N
1585890735.7,286046998.7,N
1585890755.5,286046999.0,N
1585890805.4,286046999.6,E
1585890815.3,286046999.4,N
1585890835.1,286047001.0,P
1585890855.9,286046999.9,N
1585890875.7,286046998.1,N
1585890895.6,286047000.9,N
1585890915.4,286047002.5,N
1585890935.2,286047002.1,N
1585890955.1,286047002.2,N
1585890956.0,286047002.2,N
1585890975.8,286047003.9,N
1585890995.7,286047005.9,Y
1585891015.5,286047002.3,P
1585891035.3,286046999.9,N
1585891055.2,286047001.5,N
1585891075.0,286047000.0,N
1585891075.9,286047000.0,N
1585891095.8,286047000.0,N
1585891115.6,286047001.7,N
1585891135.4,286047005.4,Y
1585891155.3,286047002.7,P
1585891175.1,286047002.4,N
1585891195.9,286047001.2,N
1585891215.7,286047003.8,Y
1585891235.5,286047001.1,P
1585891255.4,286046998.4,P
1585891275.2,286046998.2,N
1585891295.0,286046999.5,N
1585891296.0,286046999.5,N
1585891315.8,286046999.1,N
1585891335.6,286046997.7,N
1585891355.5,286046999.5,N
1585891375.3,286047002.8,N
1585891395.1,286047004.4,N
1585891415.9,286047004.4,N
1585891435.7,286047005.5,N
1585891455.6,286047003.3,N
1585891475.4,286047003.7,N
1585891495.2,286047004.2,N
1585891515.1,286047004.4,N
1585891516.0,286047004.4,N
1585891535.8,286047001.3,N
1585891555.7,286047002.9,N
1585891575.5,286047004.0,N
1585891595.3,286047003.8,N
1585891615.2,286047003.3,N
1585891635.9,286047003.6,N
1585891655.7,286047003.0,N
1585891675.6,286047005.9,N
1585891695.4,286047005.7,N
1585891715.3,286047004.7,N
1585891735.1,286047005.3,N
1585891736.0,286047005.3,N
1585891755.8,286047005.1,N
1585891775.7,286047003.8,N
1585891795.5,286047004.3,N
1585891815.3,286047005.6,N
1585891835.2,286047004.8,N
1585891855.0,286047004.7,N
1585891855.9,286047004.7,N
1585891875.8,286047006.2,Y
1585891895.6,286047002.2,P
1585891915.4,286047001.9,N
1585891935.3,286047000.6,N
1585891955.1,286047000.1,N
1585891975.9,286046999.7,N
1585891995.7,286047002.2,N
1585892015.5,286046999.9,N
1585892035.4,286047001.3,N
1585892055.2,286047001.8,N
1585892075.1,286047001.8,N
1585892076.0,286047001.8,N
1585892095.8,286047003.9,Y
1585892115.6,286047002.0,P
1585892135.5,286046999.9,N
1585892155.3,286047002.4,N
1585892175.1,286047001.6,N
1585892195.9,286047000.0,N
1585892215.7,286046998.9,N
1585892235.6,286047001.2,N
1585892255.4,286047000.6,N
1585892275.2,286046999.9,N
1585892295.1,286047000.9,N
1585892296.0,286047000.9,N
1585892315.8,286046996.9,Y
1585892335.7,286046997.5,P
1585892355.5,286047001.2,N
1585892375.3,286046998.8,N
1585892395.2,286046995.6,N
1585892415.0,286046996.8,N
1585892415.9,286046996.8,N
1585892435.8,286046997.2,N
1585892455.6,286046999.5,N
1585892475.4,286047002.8,N
1585892495.3,286046999.9,N
1585892515.1,286047000.0,N
1585892535.8,286046998.7,N
1585892555.7,286047000.0,N
1585892575.5,286046999.7,N
1585892595.4,286047002.1,N
1585892615.2,286046999.7,N
1585892635.1,286047000.7,N
1585892636.0,286047000.7,N
1585892655.8,286047001.2,N
1585892675.6,286046998.3,N
1585892695.5,286047000.8,N
1585892715.3,286046998.7,N
1585892735.2,286046998.1,N
1585892755.9,286046997.9,N
1585892775.7,286046997.2,N
1585892795.6,286047000.1,N
1585892815.4,286047002.5,N
1585892835.2,286046999.7,N
1585892855.1,286047000.5,N
1585892856.0,286047000.5,N
1585892875.8,286046998.3,N
1585892895.7,286047002.4,N
1585892915.5,286047000.3,N
1585892935.3,286047000.4,N
1585892955.2,286046999.8,N
1585892975.0,286047002.3,N
1585892975.9,286047002.3,N
1585892995.8,286047000.4,N
1585893015.6,286047000.1,N
1585893035.4,286047002.4,N
1585893055.3,286047000.2,N
1585893075.1,286046999.8,N
1585893095.9,286046998.4,N
1585893115.7,286046999.6,N
1585893135.6,286046999.3,N
1585893155.4,286047001.0,N
1585893175.2,286046999.6,N
1585893195.1,286046998.5,N
1585893196.0,286046998.5,N
1585893215.8,286047002.7,N
1585893235.7,286047000.0,N
1585893255.5,286046999.7,N
1585893275.3,286047002.1,N
1585893295.2,286047000.2,N
1585893315.0,286047001.1,N
1585893315.9,286047001.1,N
1585893335.8,286046998.6,N
1585893355.6,286047000.4,N
1585893375.4,286046999.9,N
1585893395.3,286047000.0,N
1585893415.1,286047002.5,N
1585893435.9,286047002.8,N
1585893455.7,286047000.4,N
1585893475.5,286047000.8,N
1585893495.4,286047002.4,N
1585893515.2,286047000.3,N
1585893535.0,286046997.2,N
1585893535.9,286046997.2,N
1585893555.8,286046996.6,N
1585893575.6,286046998.8,N
1585893595.5,286046999.3,N
